Time,TemperatureF,DewpointF,PressureIn,WindDirection,WindDirectionDegrees,WindSpeedMPH,WindSpeedGustMPH,Humidity,HourlyPrecipIn,Conditions,Clouds,dailyrainin,SoftwareType,DateUTC
2013-07-21 00:01:00,74.0,74.0,29.94,West,267,2.0,6.0,99,0.00,,,0.44,,2013-07-21 04:01:00,
2013-07-21 00:11:00,73.0,73.0,29.93,WSW,247,6.0,8.0,99,0.00,,,0.44,,2013-07-21 04:11:00,
2013-07-21 00:22:00,73.0,73.0,29.93,WSW,247,6.0,8.0,99,0.00,,,0.44,,2013-07-21 04:22:00,
2013-07-21 00:32:00,73.0,73.0,29.93,West,278,1.0,0.0,99,0.00,,,0.44,,2013-07-21 04:32:00,
2013-07-21 00:43:00,73.0,73.0,29.94,WNW,289,5.0,7.0,99,0.00,,,0.44,,2013-07-21 04:43:00,
2013-07-21 00:53:00,73.0,73.0,29.94,WNW,289,5.0,7.0,99,0.00,,,0.44,,2013-07-21 04:53:00,
2013-07-21 01:02:00,73.0,73.0,29.95,WNW,291,2.0,5.0,99,0.00,,,0.44,,2013-07-21 05:02:00,
2013-07-21 01:11:00,72.0,72.0,29.95,WNW,290,1.0,5.0,99,0.00,,,0.44,,2013-07-21 05:11:00,
2013-07-21 01:22:00,72.0,72.0,29.95,West,277,0.0,0.0,99,0.00,,,0.44,,2013-07-21 05:22:00,
2013-07-21 01:32:00,72.0,72.0,29.95,West,277,0.0,0.0,99,0.00,,,0.44,,2013-07-21 05:32:00,
2013-07-21 01:42:00,72.0,72.0,29.95,West,277,0.0,0.0,99,0.00,,,0.44,,2013-07-21 05:42:00,
2013-07-21 01:52:00,72.0,72.0,29.95,West,277,0.0,0.0,99,0.00,,,0.44,,2013-07-21 05:52:00,
2013-07-21 02:01:00,72.0,72.0,29.94,West,277,0.0,0.0,99,0.00,,,0.44,,2013-07-21 06:01:00,
2013-07-21 02:11:00,72.0,72.0,29.94,West,277,0.0,0.0,99,0.00,,,0.44,,2013-07-21 06:11:00,
2013-07-21 02:22:00,72.0,72.0,29.94,West,277,0.0,0.0,99,0.00,,,0.44,,2013-07-21 06:22:00,
2013-07-21 02:32:00,71.0,71.0,29.94,West,277,0.0,0.0,99,0.00,,,0.44,,2013-07-21 06:32:00,
2013-07-21 02:42:00,71.0,71.0,29.93,West,277,0.0,0.0,99,0.00,,,0.44,,2013-07-21 06:42:00,
2013-07-21 02:52:00,71.0,71.0,29.93,West,277,0.0,0.0,99,0.00,,,0.44,,2013-07-21 06:52:00,
2013-07-21 03:01:00,71.0,71.0,29.93,West,277,0.0,0.0,99,0.00,,,0.44,,2013-07-21 07:01:00,
2013-07-21 03:11:00,71.0,71.0,29.93,West,277,0.0,0.0,99,0.00,,,0.44,,2013-07-21 07:11:00,
2013-07-21 03:22:00,70.0,70.0,29.92,West,277,0.0,0.0,99,0.00,,,0.44,,2013-07-21 07:22:00,
2013-07-21 03:32:00,70.0,70.0,29.92,West,277,0.0,0.0,99,0.00,,,0.44,,2013-07-21 07:32:00,
2013-07-21 03:43:00,70.0,70.0,29.92,West,277,0.0,0.0,99,0.00,,,0.44,,2013-07-21 07:43:00,
2013-07-21 03:52:00,70.0,70.0,29.93,West,277,0.0,0.0,99,0.00,,,0.44,,2013-07-21 07:52:00,
2013-07-21 04:01:00,69.0,69.0,29.93,West,277,0.0,0.0,99,0.00,,,0.44,,2013-07-21 08:01:00,
2013-07-21 04:11:00,69.0,69.0,29.93,West,277,0.0,0.0,99,0.00,,,0.44,,2013-07-21 08:11:00,
2013-07-21 04:22:00,69.0,69.0,29.93,West,277,0.0,0.0,99,0.00,,,0.44,,2013-07-21 08:22:00,
2013-07-21 04:33:00,69.0,69.0,29.93,West,277,0.0,0.0,99,0.00,,,0.44,,2013-07-21 08:33:00,
2013-07-21 04:43:00,69.0,69.0,29.93,West,277,0.0,0.0,99,0.00,,,0.44,,2013-07-21 08:43:00,
2013-07-21 04:52:00,69.0,69.0,29.93,West,277,0.0,0.0,99,0.00,,,0.44,,2013-07-21 08:52:00,
2013-07-21 05:02:00,70.0,70.0,29.93,West,277,0.0,0.0,99,0.00,,,0.44,,2013-07-21 09:02:00,
2013-07-21 05:12:00,70.0,70.0,29.93,West,277,0.0,0.0,99,0.00,,,0.44,,2013-07-21 09:12:00,
2013-07-21 05:22:00,70.0,70.0,29.93,West,277,0.0,0.0,99,0.00,,,0.44,,2013-07-21 09:22:00,
2013-07-21 05:32:00,70.0,70.0,29.92,West,277,0.0,0.0,99,0.00,,,0.44,,2013-07-21 09:32:00,
2013-07-21 05:42:00,70.0,70.0,29.93,West,277,0.0,0.0,99,0.00,,,0.44,,2013-07-21 09:42:00,
2013-07-21 05:52:00,71.0,71.0,29.93,NNE,32,0.0,0.0,99,0.00,,,0.44,,2013-07-21 09:52:00,
2013-07-21 06:02:00,71.0,71.0,29.93,ENE,58,0.0,0.0,99,0.00,,,0.44,,2013-07-21 10:02:00,
2013-07-21 06:11:00,71.0,71.0,29.93,ENE,58,0.0,0.0,99,0.00,,,0.44,,2013-07-21 10:11:00,
2013-07-21 06:22:00,71.0,71.0,29.93,ENE,58,0.0,0.0,99,0.00,,,0.44,,2013-07-21 10:22:00,
2013-07-21 06:32:00,70.0,70.0,29.94,ENE,58,0.0,0.0,99,0.00,,,0.44,,2013-07-21 10:32:00,
2013-07-21 06:43:00,70.0,70.0,29.94,ENE,58,0.0,0.0,99,0.00,,,0.44,,2013-07-21 10:43:00,
2013-07-21 06:52:00,70.0,70.0,29.95,ENE,58,0.0,0.0,99,0.00,,,0.44,,2013-07-21 10:52:00,
2013-07-21 07:02:00,70.0,70.0,29.95,ENE,58,0.0,0.0,99,0.00,,,0.44,,2013-07-21 11:02:00,
2013-07-21 07:12:00,70.0,70.0,29.95,ENE,58,0.0,0.0,99,0.00,,,0.44,,2013-07-21 11:12:00,
2013-07-21 07:22:00,70.0,70.0,29.95,ENE,58,0.0,0.0,99,0.00,,,0.44,,2013-07-21 11:22:00,
2013-07-21 07:33:00,70.0,70.0,29.96,ENE,58,0.0,0.0,99,0.00,,,0.44,,2013-07-21 11:33:00,
2013-07-21 07:43:00,70.0,70.0,29.96,ENE,58,0.0,0.0,99,0.00,,,0.44,,2013-07-21 11:43:00,
2013-07-21 07:52:00,70.0,70.0,29.95,ENE,58,0.0,0.0,99,0.00,,,0.44,,2013-07-21 11:52:00,
2013-07-21 08:01:00,70.0,70.0,29.95,ENE,58,0.0,0.0,99,0.00,,,0.44,,2013-07-21 12:01:00,
2013-07-21 08:11:00,70.0,70.0,29.96,ENE,58,0.0,0.0,99,0.00,,,0.44,,2013-07-21 12:11:00,
2013-07-21 08:22:00,70.0,70.0,29.96,ENE,58,0.0,0.0,99,0.00,,,0.44,,2013-07-21 12:22:00,
2013-07-21 08:32:00,70.0,70.0,29.96,ENE,58,0.0,0.0,99,0.00,,,0.44,,2013-07-21 12:32:00,
2013-07-21 08:43:00,70.0,70.0,29.96,ENE,58,0.0,0.0,99,0.00,,,0.44,,2013-07-21 12:43:00,
2013-07-21 08:53:00,70.0,70.0,29.96,ENE,58,0.0,0.0,99,0.00,,,0.44,,2013-07-21 12:53:00,
2013-07-21 09:01:00,70.0,70.0,29.96,ENE,58,0.0,0.0,99,0.00,,,0.09,,2013-07-21 13:01:00,
2013-07-21 09:12:00,70.0,70.0,29.96,ENE,58,0.0,0.0,99,0.00,,,0.09,,2013-07-21 13:12:00,
2013-07-21 09:22:00,71.0,71.0,29.97,ENE,58,0.0,0.0,99,0.00,,,0.01,,2013-07-21 13:22:00,
2013-07-21 09:32:00,72.0,72.0,29.97,ENE,58,0.0,0.0,99,0.00,,,0.00,,2013-07-21 13:32:00,
2013-07-21 09:43:00,73.0,73.0,29.97,ENE,58,0.0,0.0,99,0.00,,,0.00,,2013-07-21 13:43:00,
2013-07-21 09:53:00,73.0,73.0,29.97,ENE,58,0.0,0.0,99,0.00,,,0.00,,2013-07-21 13:53:00,
2013-07-21 10:01:00,74.0,74.0,29.97,ENE,58,0.0,0.0,99,0.00,,,0.00,,2013-07-21 14:01:00,
2013-07-21 10:12:00,75.0,74.0,29.97,South,188,3.0,6.0,96,0.00,,,0.00,,2013-07-21 14:12:00,
2013-07-21 10:22:00,77.0,74.0,29.97,South,181,3.0,3.0,92,0.00,,,0.00,,2013-07-21 14:22:00,
2013-07-21 10:32:00,78.0,75.0,29.98,West,260,0.0,0.0,90,0.00,,,0.00,,2013-07-21 14:32:00,
2013-07-21 10:43:00,78.0,74.0,29.98,West,260,0.0,0.0,89,0.00,,,0.00,,2013-07-21 14:43:00,
2013-07-21 10:53:00,79.0,75.0,29.98,SW,224,1.0,7.0,88,0.00,,,0.00,,2013-07-21 14:53:00,
2013-07-21 11:02:00,79.0,74.0,29.97,SW,222,5.0,5.0,85,0.00,,,0.00,,2013-07-21 15:02:00,
2013-07-21 11:11:00,80.0,74.0,29.97,SE,145,1.0,7.0,83,0.00,,,0.00,,2013-07-21 15:11:00,
2013-07-21 11:22:00,80.0,74.0,29.97,SSW,213,1.0,2.0,82,0.00,,,0.00,,2013-07-21 15:22:00,
2013-07-21 11:32:00,81.0,75.0,29.97,SSE,157,3.0,5.0,82,0.00,,,0.00,,2013-07-21 15:32:00,
2013-07-21 11:43:00,81.0,74.0,29.98,SSW,205,5.0,6.0,80,0.00,,,0.00,,2013-07-21 15:43:00,
2013-07-21 11:53:00,81.0,75.0,29.98,SW,235,2.0,3.0,82,0.00,,,0.00,,2013-07-21 15:53:00,
2013-07-21 12:01:00,81.0,73.0,29.98,South,178,6.0,6.0,78,0.00,,,0.00,,2013-07-21 16:01:00,
2013-07-21 12:11:00,81.0,74.0,29.98,SSW,212,5.0,6.0,80,0.00,,,0.00,,2013-07-21 16:11:00,
2013-07-21 12:22:00,81.0,75.0,29.98,South,179,1.0,0.0,81,0.00,,,0.00,,2013-07-21 16:22:00,
2013-07-21 12:32:00,82.0,74.0,29.98,West,273,3.0,3.0,78,0.00,,,0.00,,2013-07-21 16:32:00,
2013-07-21 12:43:00,82.0,75.0,29.98,SW,234,0.0,6.0,79,0.00,,,0.00,,2013-07-21 16:43:00,
2013-07-21 12:52:00,83.0,75.0,29.97,South,190,5.0,6.0,76,0.00,,,0.00,,2013-07-21 16:52:00,
2013-07-21 13:02:00,83.0,73.0,29.97,South,186,5.0,6.0,73,0.00,,,0.00,,2013-07-21 17:02:00,
2013-07-21 13:11:00,84.0,74.0,29.97,South,174,2.0,6.0,72,0.00,,,0.00,,2013-07-21 17:11:00,
2013-07-21 13:22:00,85.0,75.0,29.97,SSW,194,6.0,6.0,71,0.00,,,0.00,,2013-07-21 17:22:00,
2013-07-21 13:33:00,85.0,75.0,29.97,WNW,282,2.0,3.0,72,0.00,,,0.00,,2013-07-21 17:33:00,
2013-07-21 13:43:00,85.0,74.0,29.97,SSW,205,5.0,5.0,70,0.00,,,0.00,,2013-07-21 17:43:00,
2013-07-21 13:53:00,85.0,74.0,29.96,SW,230,1.0,0.0,70,0.00,,,0.00,,2013-07-21 17:53:00,
2013-07-21 14:01:00,85.0,74.0,29.96,ESE,102,2.0,6.0,69,0.00,,,0.00,,2013-07-21 18:01:00,
2013-07-21 14:11:00,85.0,75.0,29.96,SSW,198,5.0,7.0,71,0.00,,,0.00,,2013-07-21 18:11:00,
2013-07-21 14:22:00,85.0,73.0,29.96,SSE,165,3.0,7.0,68,0.00,,,0.00,,2013-07-21 18:22:00,
2013-07-21 14:32:00,85.0,73.0,29.96,SW,224,2.0,5.0,68,0.00,,,0.00,,2013-07-21 18:32:00,
2013-07-21 14:43:00,85.0,74.0,29.96,SSW,201,1.0,3.0,70,0.00,,,0.00,,2013-07-21 18:43:00,
2013-07-21 14:52:00,85.0,73.0,29.95,South,177,6.0,7.0,67,0.00,,,0.00,,2013-07-21 18:52:00,
2013-07-21 15:01:00,85.0,72.0,29.95,SE,138,1.0,6.0,65,0.00,,,0.00,,2013-07-21 19:01:00,
2013-07-21 15:11:00,85.0,72.0,29.95,SE,138,1.0,6.0,65,0.00,,,0.00,,2013-07-21 19:11:00,
2013-07-21 15:22:00,85.0,73.0,29.94,South,179,3.0,5.0,68,0.00,,,0.00,,2013-07-21 19:22:00,
2013-07-21 15:32:00,85.0,74.0,29.95,South,179,6.0,8.0,69,0.00,,,0.00,,2013-07-21 19:32:00,
2013-07-21 15:42:00,85.0,73.0,29.94,South,176,1.0,6.0,67,0.00,,,0.00,,2013-07-21 19:42:00,
2013-07-21 15:52:00,85.0,71.0,29.93,SSE,167,7.0,7.0,64,0.00,,,0.00,,2013-07-21 19:52:00,
2013-07-21 16:01:00,84.0,72.0,29.93,SSE,154,5.0,6.0,67,0.00,,,0.00,,2013-07-21 20:01:00,
2013-07-21 16:12:00,85.0,73.0,29.93,South,176,2.0,3.0,67,0.00,,,0.00,,2013-07-21 20:12:00,
2013-07-21 16:22:00,84.0,72.0,29.93,SE,131,3.0,5.0,67,0.00,,,0.00,,2013-07-21 20:22:00,
2013-07-21 16:32:00,84.0,73.0,29.92,SE,141,2.0,6.0,70,0.00,,,0.00,,2013-07-21 20:32:00,
2013-07-21 16:43:00,84.0,74.0,29.92,South,179,5.0,5.0,71,0.00,,,0.00,,2013-07-21 20:43:00,
2013-07-21 16:52:00,84.0,74.0,29.92,SSW,213,5.0,7.0,73,0.00,,,0.00,,2013-07-21 20:52:00,
2013-07-21 17:01:00,84.0,74.0,29.92,SSW,193,3.0,5.0,72,0.00,,,0.00,,2013-07-21 21:01:00,
2013-07-21 17:11:00,84.0,74.0,29.91,SW,221,3.0,5.0,73,0.00,,,0.00,,2013-07-21 21:11:00,
2013-07-21 17:22:00,84.0,74.0,29.91,SSW,195,5.0,6.0,72,0.00,,,0.00,,2013-07-21 21:22:00,
2013-07-21 17:32:00,84.0,74.0,29.91,SE,139,2.0,6.0,71,0.00,,,0.00,,2013-07-21 21:32:00,
2013-07-21 17:43:00,84.0,74.0,29.91,SE,136,0.0,0.0,73,0.00,,,0.00,,2013-07-21 21:43:00,
2013-07-21 17:52:00,84.0,74.0,29.91,SW,230,6.0,7.0,72,0.00,,,0.00,,2013-07-21 21:52:00,
2013-07-21 18:01:00,84.0,74.0,29.90,SSW,200,3.0,5.0,72,0.00,,,0.00,,2013-07-21 22:01:00,
2013-07-21 18:11:00,84.0,74.0,29.89,SW,225,3.0,5.0,73,0.00,,,0.00,,2013-07-21 22:11:00,
2013-07-21 18:22:00,84.0,74.0,29.89,WSW,237,3.0,5.0,73,0.00,,,0.00,,2013-07-21 22:22:00,
2013-07-21 18:32:00,84.0,74.0,29.89,South,183,6.0,8.0,73,0.00,,,0.00,,2013-07-21 22:32:00,
2013-07-21 18:43:00,84.0,74.0,29.89,SW,216,2.0,5.0,73,0.00,,,0.00,,2013-07-21 22:43:00,
2013-07-21 18:52:00,83.0,74.0,29.88,SW,223,3.0,5.0,74,0.00,,,0.00,,2013-07-21 22:52:00,
2013-07-21 19:02:00,83.0,74.0,29.88,SSW,212,5.0,9.0,75,0.00,,,0.00,,2013-07-21 23:02:00,
2013-07-21 19:11:00,83.0,75.0,29.88,SW,226,7.0,8.0,76,0.00,,,0.00,,2013-07-21 23:11:00,
2013-07-21 19:22:00,83.0,75.0,29.88,SSW,210,8.0,9.0,77,0.00,,,0.00,,2013-07-21 23:22:00,
2013-07-21 19:32:00,83.0,75.0,29.88,SW,218,6.0,8.0,77,0.00,,,0.00,,2013-07-21 23:32:00,
2013-07-21 19:42:00,82.0,74.0,29.88,SW,214,5.0,6.0,78,0.00,,,0.00,,2013-07-21 23:42:00,
2013-07-21 19:52:00,82.0,75.0,29.88,SSW,213,6.0,7.0,79,0.00,,,0.00,,2013-07-21 23:52:00,
2013-07-21 20:01:00,81.0,74.0,29.88,SSW,197,5.0,5.0,80,0.00,,,0.00,,2013-07-22 00:01:00,
2013-07-21 20:11:00,81.0,75.0,29.88,SSW,199,1.0,0.0,81,0.00,,,0.00,,2013-07-22 00:11:00,
2013-07-21 20:22:00,81.0,75.0,29.88,SW,223,1.0,5.0,81,0.00,,,0.00,,2013-07-22 00:22:00,
2013-07-21 20:32:00,81.0,75.0,29.88,South,176,2.0,5.0,82,0.00,,,0.00,,2013-07-22 00:32:00,
2013-07-21 20:42:00,81.0,75.0,29.88,South,190,2.0,5.0,82,0.00,,,0.00,,2013-07-22 00:42:00,
2013-07-21 20:52:00,80.0,75.0,29.88,SW,233,3.0,6.0,84,0.00,,,0.00,,2013-07-22 00:52:00,
2013-07-21 21:02:00,80.0,75.0,29.88,SW,222,0.0,0.0,85,0.00,,,0.00,,2013-07-22 01:02:00,
2013-07-21 21:11:00,80.0,75.0,29.88,West,259,2.0,5.0,85,0.00,,,0.00,,2013-07-22 01:11:00,
2013-07-21 21:22:00,80.0,75.0,29.89,SW,232,3.0,3.0,84,0.00,,,0.00,,2013-07-22 01:22:00,
2013-07-21 21:32:00,80.0,75.0,29.89,WSW,245,3.0,6.0,84,0.00,,,0.00,,2013-07-22 01:32:00,
2013-07-21 21:42:00,79.0,74.0,29.90,SW,230,1.0,5.0,84,0.00,,,0.00,,2013-07-22 01:42:00,
2013-07-21 21:52:00,79.0,74.0,29.90,West,260,0.0,0.0,85,0.00,,,0.00,,2013-07-22 01:52:00,
2013-07-21 22:02:00,79.0,74.0,29.90,West,260,0.0,0.0,86,0.00,,,0.00,,2013-07-22 02:02:00,
2013-07-21 22:11:00,78.0,74.0,29.91,West,260,0.0,0.0,87,0.00,,,0.00,,2013-07-22 02:11:00,
2013-07-21 22:22:00,78.0,74.0,29.91,West,260,0.0,0.0,88,0.00,,,0.00,,2013-07-22 02:22:00,
2013-07-21 22:32:00,78.0,74.0,29.91,West,260,0.0,0.0,89,0.00,,,0.00,,2013-07-22 02:32:00,
2013-07-21 22:43:00,78.0,75.0,29.91,West,260,0.0,0.0,90,0.00,,,0.00,,2013-07-22 02:43:00,
2013-07-21 22:52:00,77.0,74.0,29.91,West,260,0.0,0.0,90,0.00,,,0.00,,2013-07-22 02:52:00,
2013-07-21 23:01:00,77.0,74.0,29.91,West,260,0.0,0.0,91,0.00,,,0.00,,2013-07-22 03:01:00,
2013-07-21 23:12:00,77.0,74.0,29.91,West,260,0.0,0.0,91,0.00,,,0.00,,2013-07-22 03:12:00,
2013-07-21 23:22:00,77.0,74.0,29.91,West,260,0.0,0.0,92,0.00,,,0.00,,2013-07-22 03:22:00,
2013-07-21 23:33:00,77.0,75.0,29.91,West,260,0.0,0.0,93,0.00,,,0.00,,2013-07-22 03:33:00,
2013-07-21 23:43:00,76.0,74.0,29.91,West,260,0.0,0.0,93,0.00,,,0.00,,2013-07-22 03:43:00,
2013-07-21 23:53:00,76.0,74.0,29.90,West,260,0.0,0.0,94,0.00,,,0.00,,2013-07-22 03:53:00,